TimeEDT,TemperatureF,Dew PointF,Humidity,Sea Level PressureIn,VisibilityMPH,Wind Direction,Wind SpeedMPH,Gust SpeedMPH,PrecipitationIn,Events,Conditions,WindDirDegrees,DateUTC
12:53 AM,25.0,16.0,69,30.13,10.0,WSW,5.8,-,N/A,,Clear,250,2013-04-02 04:53:00
1:53 AM,25.0,16.0,69,30.13,10.0,WNW,4.6,-,N/A,,Mostly Cloudy,290,2013-04-02 05:53:00
2:53 AM,28.0,21.0,75,30.14,10.0,NW,8.1,-,0.00,,Overcast,320,2013-04-02 06:53:00
3:53 AM,26.1,18.0,71,30.15,10.0,NNW,5.8,-,N/A,,Partly Cloudy,330,2013-04-02 07:53:00
4:53 AM,24.1,16.0,71,30.15,10.0,West,3.5,-,N/A,,Clear,270,2013-04-02 08:53:00
5:53 AM,23.0,15.1,72,30.16,10.0,WSW,4.6,-,N/A,,Clear,240,2013-04-02 09:53:00
6:53 AM,23.0,17.1,78,30.17,10.0,SSW,5.8,-,N/A,,Partly Cloudy,210,2013-04-02 10:53:00
7:53 AM,25.0,17.1,72,30.19,10.0,WSW,5.8,-,N/A,,Mostly Cloudy,240,2013-04-02 11:53:00
8:53 AM,28.9,18.0,64,30.20,10.0,West,8.1,-,N/A,,Scattered Clouds,260,2013-04-02 12:53:00
9:53 AM,34.0,18.0,52,30.20,10.0,WNW,16.1,21.9,N/A,,Partly Cloudy,290,2013-04-02 13:53:00
10:53 AM,34.0,17.1,50,30.21,10.0,WNW,15.0,20.7,N/A,,Mostly Cloudy,300,2013-04-02 14:53:00
11:53 AM,36.0,12.9,39,30.21,10.0,West,17.3,25.3,N/A,,Mostly Cloudy,280,2013-04-02 15:53:00
12:53 PM,37.0,14.0,39,30.21,10.0,West,15.0,23.0,N/A,,Mostly Cloudy,270,2013-04-02 16:53:00
1:53 PM,37.0,14.0,39,30.21,10.0,WNW,13.8,27.6,N/A,,Mostly Cloudy,290,2013-04-02 17:53:00
2:53 PM,39.0,15.1,38,30.20,10.0,West,17.3,25.3,N/A,,Mostly Cloudy,280,2013-04-02 18:53:00
3:53 PM,39.0,15.1,38,30.20,10.0,West,16.1,25.3,N/A,,Mostly Cloudy,280,2013-04-02 19:53:00
4:53 PM,37.0,14.0,39,30.21,10.0,West,20.7,27.6,N/A,,Scattered Clouds,270,2013-04-02 20:53:00
5:53 PM,36.0,14.0,41,30.23,10.0,West,20.7,29.9,N/A,,Scattered Clouds,270,2013-04-02 21:53:00
6:53 PM,35.6,12.2,38,30.21,10.0,WNW,13.8,20.7,N/A,,Scattered Clouds,300,2013-04-02 22:53:00
7:53 PM,34.0,12.9,42,30.25,10.0,WNW,15.0,-,N/A,,Partly Cloudy,300,2013-04-02 23:53:00
8:53 PM,33.1,12.0,42,30.26,10.0,NW,10.4,-,N/A,,Partly Cloudy,310,2013-04-03 00:53:00
9:53 PM,30.9,12.9,47,30.28,10.0,WNW,6.9,-,N/A,,Clear,300,2013-04-03 01:53:00
10:53 PM,28.9,12.9,51,30.29,10.0,West,4.6,-,N/A,,Clear,270,2013-04-03 02:53:00
11:53 PM,28.4,14.0,55,30.26,10.0,West,4.6,-,N/A,,Clear,270,2013-04-03 03:53:00